Location: Rodanthe
(35.5920°N, 75.4670°W)
Time: 03:30:43
(UTC-04:00)

ISS - All Passes

Search period start: 19 August 2017 00:00
Search period end: 29 August 2017 00:00
Orbit: 401 x 408 km, 51.6° (Epoch: 19 August)

Date Brightness Start Highest point End Pass type
(mag) Time Alt. Az. Time Alt. Az. Time Alt. Az.
19 Aug - 09:41:37 10° SSE 09:43:18 13° SE 09:44:58 10° E daylight
19 Aug - 11:16:17 10° WSW 11:19:27 47° NW 11:22:38 10° NE daylight
19 Aug - 17:46:25 10° NW 17:49:36 48° NE 17:52:45 10° ESE daylight
19 Aug - 19:24:12 10° W 19:25:44 13° SW 19:27:16 10° SSW daylight
20 Aug - 10:23:54 10° SW 10:27:11 81° SE 10:30:28 10° NE daylight
20 Aug - 12:02:16 10° WNW 12:04:01 14° NNW 12:05:47 10° N daylight
20 Aug - 16:54:27 10° NNW 16:57:14 26° NNE 17:00:01 10° E daylight
20 Aug - 18:30:53 10° WNW 18:33:40 26° SW 18:36:26 10° S daylight
21 Aug - 09:31:57 10° SSW 09:34:59 35° SE 09:38:01 10° ENE daylight
21 Aug - 11:08:56 10° W 11:11:31 21° NNW 11:14:07 10° NNE daylight
21 Aug - 16:02:39 10° NNW 16:04:46 16° NNE 16:06:53 10° ENE daylight
21 Aug - 17:38:16 10° NW 17:41:30 58° SW 17:44:41 10° SE daylight
22 Aug - 08:40:37 10° S 08:42:51 17° SE 08:45:06 10° E daylight
22 Aug - 10:16:01 10° WSW 10:19:06 37° NW 10:22:11 10° NNE daylight
22 Aug - 15:11:25 10° N 15:12:12 11° NNE 15:12:59 10° NE daylight
22 Aug - 16:45:59 10° NW 16:49:14 62° NE 16:52:27 10° ESE daylight
23 Aug - 09:23:29 10° SW 09:26:45 77° NW 09:30:03 10° NE daylight
23 Aug - 11:02:23 10° NW 11:03:42 12° NNW 11:05:01 10° N daylight
23 Aug - 15:53:54 10° NNW 15:56:52 31° NE 15:59:48 10° E daylight
23 Aug - 17:30:41 10° W 17:33:11 20° SW 17:35:40 10° S daylight
24 Aug - 08:31:20 10° SSW 08:34:30 47° SE 08:37:40 10° ENE daylight
24 Aug - 10:08:47 10° WNW 10:11:08 18° NNW 10:13:30 10° NNE daylight
24 Aug - 15:01:59 10° NNW 15:04:23 19° NNE 15:06:47 10° ENE daylight
24 Aug - 16:37:53 10° WNW 16:41:00 43° SW 16:44:06 10° SSE daylight
25 Aug - 07:39:41 10° S 07:42:18 22° SE 07:44:54 10° ENE daylight
25 Aug - 09:15:43 10° W 09:18:39 30° NW 09:21:36 10° NNE daylight
25 Aug - 14:10:24 10° N 14:11:49 12° NNE 14:13:13 10° NE daylight
25 Aug - 15:45:27 10° NW 15:48:44 82° NE 15:51:59 10° SE daylight
26 Aug - 06:49:23 10° SE 06:50:10 11° SE 06:50:56 10° ESE daylight
26 Aug - 08:23:00 10° WSW 08:26:14 59° NW 08:29:29 10° NE daylight
26 Aug - 10:02:39 10° NNW 10:03:17 10° NNW 10:03:54 10° NNW daylight
26 Aug - 14:53:15 10° NW 14:56:21 39° NE 14:59:26 10° ESE daylight
26 Aug - 16:30:29 10° W 16:32:34 16° SW 16:34:40 10° SSW daylight
27 Aug - 07:30:40 10° SW 07:33:54 63° SE 07:37:09 10° NE daylight
27 Aug - 09:08:34 10° WNW 09:10:38 16° NNW 09:12:43 10° N daylight
27 Aug - 14:01:15 10° NNW 14:03:53 22° NNE 14:06:30 10° E daylight
27 Aug - 15:37:24 10° WNW 15:40:23 33° SW 15:43:21 10° SSE daylight
28 Aug - 06:38:47 10° SSW 06:41:38 28° SE 06:44:31 10° ENE daylight
28 Aug - 08:15:19 10° W 08:18:05 25° NNW 08:20:52 10° NNE daylight
28 Aug - 13:09:28 10° N 13:11:18 14° NNE 13:13:07 10° ENE daylight
28 Aug - 14:44:51 10° NW 14:48:07 76° SW 14:51:20 10° SE daylight
